GW2683 Weather Reports


time (UTC)temp
C
wind
direction
speed
KPH
gust
KPH
rain 1hr
cm
rain 24hr
cm
rain mn
cm
humidity
%
barometer
mb
20260506231803 9 287 9.7 24.1 0.13 1.35 1.35 88 1007.6
20260506231304 9 332 12.9 24.1 0.13 1.35 1.35 88 1007.6
20260506230803 10 332 3.2 19.3 0.13 1.35 1.35 87 1007.4
20260506230304 10 352 11.3 20.9 0.10 1.32 1.32 87 1007.2
20260506225804 10 309 11.3 22.5 0.10 1.32 1.32 87 1006.9
20260506225305 10 347 12.9 22.5 0.03 1.24 1.24 86 1006.8
20260506224803 10 331 9.7 19.3 0.00 1.22 1.22 86 1006.7
20260506224303 10 320 11.3 24.1 0.00 1.22 1.22 86 1006.3
20260506223803 11 328 9.7 24.1 0.00 1.22 1.22 86 1006.3
20260506223304 11 325 9.7 20.9 0.00 1.22 1.22 86 1006.2
20260506222306 11 342 9.7 24.1 0.00 1.22 1.22 85 1005.9
20260506221803 12 323 11.3 24.1 0.00 1.22 1.22 83 1006.0
20260506221303 14 308 16.1 24.1 0.00 1.22 1.22 82 1005.7
20260506220304 16 224 3.2 8.0 0.00 1.22 1.22 85 1005.2
20260506215804 16 201 3.2 8.0 0.00 1.22 1.22 85 1005.1
20260506215306 16 202 1.6 8.0 0.00 1.22 1.22 85 1005.1
20260506214804 16 235 1.6 9.7 0.00 1.22 1.22 84 1005.0
20260506214304 16 146 3.2 9.7 0.00 1.22 1.22 84 1004.9
20260506213803 16 161 3.2 9.7 0.00 1.22 1.22 84 1004.8
20260506213304 16 182 1.6 9.7 0.00 1.22 1.22 85 1004.8
20260506212803 16 168 1.6 11.3 0.00 1.22 1.22 85 1004.7
20260506212306 16 197 4.8 11.3 0.00 1.22 1.22 84 1004.6
20260506211804 16 169 1.6 11.3 0.00 1.22 1.22 85 1004.5
20260506211304 16 157 4.8 11.3 0.00 1.22 1.22 85 1004.5
20260506210804 16 160 3.2 11.3 0.00 1.22 1.22 86 1004.4
20260506205803 16 232 4.8 12.9 0.00 1.22 1.22 86 1004.4
20260506205305 16 211 6.4 12.9 0.00 1.22 1.22 86 1004.4
20260506204803 16 182 3.2 16.1 0.00 1.22 1.22 86 1004.3
20260506204304 16 177 3.2 16.1 0.00 1.22 1.22 86 1004.2
20260506203803 16 197 4.8 16.1 0.00 1.22 1.22 86 1004.3
20260506203304 16 201 3.2 11.3 0.00 1.22 1.22 87 1004.3
20260506202306 16 244 3.2 9.7 0.00 1.22 1.22 89 1004.2
20260506201803 15 222 6.4 9.7 0.00 1.22 1.22 88 1004.2
20260506201304 15 142 1.6 8.0 0.00 1.22 1.22 89 1004.2
20260506200804 15 211 3.2 4.8 0.00 1.22 1.22 89 1004.2
20260506195803 15 154 1.6 4.8 0.00 1.22 1.22 89 1004.4
20260506195306 15 144 1.6 4.8 0.00 1.22 1.22 90 1004.4
20260506194804 15 202 1.6 4.8 0.00 1.22 1.22 90 1004.4
20260506194304 15 150 1.6 3.2 0.00 1.22 1.22 91 1004.5
20260506193804 15 181 0.0 3.2 0.00 1.22 1.22 91 1004.5
20260506193304 15 224 1.6 3.2 0.00 1.22 1.22 90 1004.6
20260506192306 15 220 1.6 3.2 0.03 1.22 1.22 90 1004.7
20260506191304 15 200 0.0 3.2 0.03 1.22 1.22 90 1004.8
20260506190804 15 178 0.0 3.2 0.03 1.22 1.22 90 1004.8
20260506190303 15 176 0.0 3.2 0.03 1.22 1.22 90 1004.8
20260506185803 15 211 0.0 3.2 0.03 1.22 1.22 90 1004.7
20260506184803 14 195 0.0 4.8 0.05 1.22 1.22 90 1004.8
20260506184304 14 179 0.0 4.8 0.05 1.22 1.22 90 1004.9
20260506183804 14 145 1.6 4.8 0.08 1.22 1.22 91 1004.9
20260506183304 14 205 0.0 8.0 0.08 1.22 1.22 91 1004.9
20260506182804 14 147 1.6 8.0 0.05 1.19 1.19 91 1004.9
20260506182306 14 182 0.0 3.2 0.05 1.19 1.19 91 1004.9
20260506181804 14 159 0.0 8.0 0.08 1.19 1.19 91 1005.0
20260506181304 14 206 1.6 8.0 0.08 1.19 1.19 91 1005.1
20260506180804 14 179 0.0 8.0 0.08 1.19 1.19 91 1005.1
20260506180304 14 207 1.6 8.0 0.08 1.19 1.19 90 1005.0
20260506175804 14 151 1.6 9.7 0.08 1.19 1.19 90 1005.1
20260506175306 14 150 4.8 9.7 0.08 1.17 1.17 90 1005.2
20260506174803 14 228 0.0 12.9 0.10 1.17 1.17 90 1005.1
20260506174304 14 189 3.2 12.9 0.10 1.17 1.17 90 1005.1
20260506173804 14 221 0.0 4.8 0.08 1.14 1.14 90 1005.1
20260506173303 14 183 0.0 4.8 0.08 1.14 1.14 90 1005.0
20260506172802 14 157 3.2 4.8 0.08 1.14 1.14 90 1005.1
20260506172306 14 192 0.0 11.3 0.10 1.14 1.14 90 1005.1
20260506171802 14 191 3.2 11.3 0.08 1.12 1.12 90 1005.1
20260506171303 14 208 3.2 9.7 0.10 1.12 1.12 90 1005.1
20260506170802 14 158 3.2 9.7 0.10 1.12 1.12 90 1005.1
20260506170303 14 152 3.2 8.0 0.10 1.12 1.12 89 1005.1
20260506165802 14 164 1.6 8.0 0.10 1.12 1.12 89 1005.0
20260506165305 14 204 0.0 8.0 0.08 1.09 1.09 89 1004.9
20260506164802 14 176 3.2 14.5 0.08 1.07 1.07 89 1004.9
20260506164302 14 142 3.2 14.5 0.08 1.07 1.07 89 1005.0
20260506163803 14 172 3.2 11.3 0.10 1.07 1.07 89 1004.9
20260506163303 14 174 3.2 9.7 0.10 1.07 1.07 89 1005.0
20260506162803 14 119 1.6 9.7 0.13 1.07 1.07 89 1005.0
20260506162306 14 201 4.8 14.5 0.15 1.04 1.04 89 1004.9
20260506161803 14 165 4.8 14.5 0.18 1.04 1.04 90 1005.0
20260506161303 14 122 1.6 12.9 0.23 1.02 1.02 90 1005.1
20260506155802 14 246 1.6 4.8 0.41 1.02 1.02 90 1005.2
20260506155305 14 188 1.6 4.8 0.43 1.02 1.02 90 1005.1
20260506154802 14 164 1.6 9.7 0.43 0.99 0.99 90 1005.2
20260506154302 14 163 0.0 9.7 0.46 0.99 0.99 90 1005.3
20260506153802 14 172 0.0 4.8 0.46 0.97 0.97 90 1005.3
20260506153302 14 129 3.2 11.3 0.46 0.97 0.97 90 1005.3
20260506152803 14 279 1.6 11.3 0.46 0.94 0.94 89 1005.4
20260506152305 14 167 3.2 11.3 0.41 0.89 0.89 89 1005.5
20260506151803 14 71 1.6 11.3 0.43 0.86 0.86 89 1005.6
20260506151302 14 138 1.6 9.7 0.38 0.79 0.79 89 1005.6
20260506150802 14 191 1.6 9.7 0.33 0.74 0.74 89 1005.6
20260506150304 14 75 3.2 4.8 0.28 0.66 0.66 89 1005.5
20260506145803 14 137 3.2 4.8 0.25 0.61 0.61 89 1005.4
20260506145305 14 172 1.6 4.8 0.23 0.58 0.58 89 1005.4
20260506144802 14 156 1.6 4.8 0.23 0.56 0.56 89 1005.4
20260506143803 14 33 0.0 4.8 0.20 0.51 0.51 89 1005.3
20260506143302 14 204 1.6 4.8 0.25 0.51 0.51 89 1005.3
20260506141802 14 90 1.6 11.3 0.25 0.43 0.43 89 1005.6
20260506141303 14 149 3.2 11.3 0.25 0.41 0.41 89 1005.6
20260506140803 14 172 0.0 3.2 0.28 0.41 0.41 88 1005.7
20260506140303 14 85 1.6 3.2 0.28 0.38 0.38 88 1005.7
20260506135803 14 279 0.0 3.2 0.25 0.36 0.36 88 1005.7
20260506135306 14 64 1.6 4.8 0.28 0.36 0.36 88 1005.8
20260506134803 14 215 0.0 4.8 0.28 0.33 0.33 88 1005.9
20260506134303 14 155 1.6 4.8 0.28 0.30 0.30 88 1006.0
20260506133802 14 186 0.0 3.2 0.28 0.30 0.30 87 1006.1
20260506133302 14 103 0.0 3.2 0.25 0.25 0.25 87 1006.1
20260506132802 14 89 0.0 1.6 0.23 0.23 0.23 87 1006.2
20260506132305 14 163 0.0 3.2 0.20 0.20 0.20 86 1006.2
20260506131303 14 267 0.0 4.8 0.15 0.15 0.15 85 1006.3
20260506130803 14 166 0.0 4.8 0.13 0.13 0.13 85 1006.3
20260506130303 15 240 0.0 4.8 0.10 0.10 0.10 85 1006.4
20260506125802 15 215 1.6 4.8 0.10 0.10 0.10 84 1006.4
20260506125305 15 269 1.6 4.8 0.08 0.08 0.08 83 1006.4
20260506124303 15 150 3.2 4.8 0.03 0.03 0.03 82 1006.2
20260506123803 15 137 1.6 8.0 0.03 0.03 0.03 82 1006.1
20260506123302 15 213 0.0 16.1 0.00 0.00 0.00 81 1006.0
20260506122803 15 220 3.2 16.1 0.00 0.00 0.00 79 1005.9
20260506122305 15 154 1.6 14.5 0.00 0.00 0.00 79 1005.9
20260506121802 15 112 1.6 14.5 0.00 0.00 0.00 78 1005.9
20260506121303 15 189 1.6 4.8 0.00 0.00 0.00 77 1006.0
20260506120803 16 185 0.0 4.8 0.00 0.00 0.00 77 1006.0
20260506120303 16 96 1.6 8.0 0.00 0.00 0.00 76 1005.8
20260506115802 16 146 1.6 8.0 0.00 0.00 0.00 76 1005.9
20260506115306 16 181 1.6 4.8 0.00 0.00 0.00 76 1005.9
20260506114302 16 214 1.6 4.8 0.00 0.00 0.00 75 1005.9
20260506113802 16 155 1.6 4.8 0.00 0.00 0.00 75 1005.8
20260506113303 16 141 1.6 8.0 0.00 0.00 0.00 74 1005.8
20260506112803 16 218 3.2 8.0 0.00 0.00 0.00 74 1005.9
20260506111803 16 132 1.6 3.2 0.00 0.00 0.00 73 1005.8
20260506105803 16 166 1.6 3.2 0.00 0.00 0.00 72 1005.7
20260506105305 16 215 1.6 9.7 0.00 0.00 0.00 71 1005.7
20260506104803 16 138 0.0 9.7 0.00 0.00 0.00 72 1005.6
20260506103303 15 151 1.6 3.2 0.00 0.00 0.00 72 1005.3
20260506102803 15 181 0.0 3.2 0.00 0.00 0.00 72 1005.2
20260506102305 15 164 0.0 1.6 0.00 0.00 0.00 72 1005.2
20260506101302 15 176 0.0 0.0 0.00 0.00 0.00 71 1005.4
20260506100803 15 176 0.0 0.0 0.00 0.00 0.00 71 1005.3
20260506100303 15 181 0.0 0.0 0.00 0.00 0.00 70 1005.3
20260506095803 15 231 0.0 3.2 0.00 0.00 0.00 70 1005.3
20260506095305 15 298 0.0 3.2 0.00 0.00 0.00 71 1005.3
20260506094802 15 326 0.0 3.2 0.00 0.00 0.00 71 1005.4
20260506094303 15 236 0.0 0.0 0.00 0.00 0.00 70 1005.5
20260506093803 15 236 0.0 0.0 0.00 0.00 0.00 71 1005.5
20260506093303 15 236 0.0 0.0 0.00 0.00 0.00 71 1005.6
20260506092803 15 236 0.0 0.0 0.00 0.00 0.00 70 1005.6
20260506092305 15 235 0.0 0.0 0.00 0.00 0.00 69 1005.6
20260506091302 15 273 0.0 0.0 0.00 0.00 0.00 70 1005.6
20260506090803 15 318 0.0 1.6 0.00 0.00 0.00 69 1005.6
20260506090303 15 318 0.0 3.2 0.00 0.00 0.00 68 1005.6
20260506085803 15 317 0.0 3.2 0.00 0.00 0.00 69 1005.7
20260506085305 15 306 0.0 3.2 0.00 0.00 0.00 68 1005.7
20260506084803 15 306 1.6 3.2 0.00 0.00 0.00 69 1005.8
20260506084303 16 347 1.6 3.2 0.00 0.00 0.00 66 1005.6
20260506083802 16 342 0.0 3.2 0.00 0.00 0.00 65 1005.8
20260506083303 16 341 1.6 3.2 0.00 0.00 0.00 65 1005.9
20260506082305 16 271 0.0 4.8 0.00 0.00 0.00 64 1005.8
20260506081303 16 45 0.0 3.2 0.00 0.00 0.00 62 1005.7
20260506080804 16 109 0.0 3.2 0.00 0.00 0.00 62 1005.7
20260506080303 16 65 0.0 3.2 0.00 0.00 0.00 62 1005.8
20260506073303 17 59 0.0 3.2 0.00 0.00 0.00 60 1005.9
20260506072305 17 65 1.6 3.2 0.00 0.00 0.00 59 1005.9
20260506071803 17 55 0.0 4.8 0.00 0.00 0.00 59 1006.1
20260506071303 17 99 1.6 4.8 0.00 0.00 0.00 58 1006.2
20260506070803 17 173 0.0 4.8 0.00 0.00 0.00 58 1006.2
20260506070303 17 165 1.6 4.8 0.00 0.00 0.00 57 1006.3
20260506061803 17 88 1.6 4.8 0.00 0.00 0.00 59 1006.5
20260506061303 16 220 1.6 3.2 0.00 0.00 0.00 60 1006.6
20260506060803 16 312 0.0 3.2 0.00 0.00 0.00 62 1006.7
20260506060303 16 313 0.0 4.8 0.00 0.00 0.00 61 1006.8
20260506051303 14 4 1.6 4.8 0.00 0.00 0.00 65 1007.2
20260506050803 14 5 1.6 4.8 0.00 0.00 0.00 67 1007.2
20260506050303 13 297 0.0 3.2 0.00 0.00 0.00 68 1007.3
20260506044803 13 347 1.6 4.8 0.00 0.00 0.00 71 1007.2
20260506044304 13 336 0.0 4.8 0.00 0.00 0.00 72 1007.3
20260506043803 13 350 1.6 4.8 0.00 0.00 0.00 69 1007.3
20260506042803 13 338 1.6 3.2 0.00 0.00 0.00 70 1007.4
20260506042305 13 346 1.6 3.2 0.00 0.00 0.00 71 1007.4
20260506041803 13 332 1.6 3.2 0.00 0.00 0.00 71 1007.4
20260506041303 13 339 0.0 3.2 0.00 0.00 0.00 72 1007.3
20260506040815 13 303 0.0 0.0 0.00 0.00 0.00 69 1007.3
20260506035804 13 298 0.0 0.0 0.00 0.00 0.00 70 1007.4
20260506035305 14 298 0.0 0.0 0.00 0.00 0.00 69 1007.4
20260506034804 14 298 0.0 0.0 0.00 0.00 0.00 70 1007.4
20260506034303 15 298 0.0 0.0 0.00 0.00 0.00 69 1007.4
20260506033804 15 298 0.0 0.0 0.00 0.00 0.00 67 1007.4
20260506033303 15 298 0.0 0.0 0.00 0.00 0.00 66 1007.3
20260506032803 15 298 0.0 0.0 0.00 0.00 0.00 64 1007.3
20260506031804 16 298 0.0 0.0 0.00 0.00 0.00 65 1007.3
20260506031303 16 298 0.0 0.0 0.00 0.00 0.00 62 1007.3
20260506030803 16 298 0.0 0.0 0.00 0.00 0.00 60 1007.3
20260506030303 17 298 0.0 0.0 0.00 0.00 0.00 62 1007.3
20260506025803 17 298 0.0 3.2 0.00 0.00 0.00 58 1007.2
20260506024803 18 124 0.0 4.8 0.00 0.00 0.00 56 1007.3
20260506023803 18 77 0.0 3.2 0.00 0.00 0.00 52 1007.3
20260506023303 19 249 0.0 3.2 0.00 0.00 0.00 55 1007.3
20260506022305 19 178 1.6 3.2 0.00 0.00 0.00 51 1007.4
20260506021803 20 182 0.0 3.2 0.00 0.00 0.00 50 1007.5
20260506021303 20 191 0.0 3.2 0.00 0.00 0.00 49 1007.4
20260506020804 20 201 0.0 1.6 0.00 0.00 0.00 49 1007.5
20260506020303 20 175 0.0 4.8 0.00 0.00 0.00 49 1007.4
20260506015804 20 171 0.0 4.8 0.00 0.00 0.00 47 1007.4
20260506015306 20 137 3.2 4.8 0.00 0.00 0.00 47 1007.4
20260506014803 21 141 1.6 4.8 0.00 0.00 0.00 47 1007.3
20260506013804 21 110 0.0 4.8 0.00 0.00 0.00 47 1007.3
20260506013303 21 176 3.2 4.8 0.00 0.00 0.00 46 1007.2
20260506012803 21 228 0.0 4.8 0.00 0.00 0.00 46 1007.2
20260506012307 21 164 1.6 4.8 0.00 0.00 0.00 45 1007.1
20260506011803 21 156 1.6 3.2 0.00 0.00 0.00 45 1007.0
20260506011303 21 144 0.0 14.5 0.00 0.00 0.00 44 1006.9
20260506010304 22 157 3.2 9.7 0.00 0.00 0.00 45 1006.7
20260506005803 22 158 1.6 4.8 0.00 0.00 0.00 43 1006.6
20260506005305 22 147 1.6 4.8 0.00 0.00 0.00 44 1006.6
20260506004803 22 122 1.6 4.8 0.00 0.00 0.00 43 1006.5
20260506004303 22 240 0.0 8.0 0.00 0.00 0.00 44 1006.5
20260506003304 22 175 3.2 11.3 0.00 0.00 0.00 42 1006.3
20260506002803 22 135 0.0 11.3 0.00 0.00 0.00 41 1006.2
20260506002305 22 172 1.6 4.8 0.00 0.00 0.00 41 1006.1
20260506001803 22 143 3.2 8.0 0.00 0.00 0.00 40 1006.1
20260506001303 22 148 3.2 8.0 0.00 0.00 0.00 41 1006.0
20260506000803 22 190 4.8 8.0 0.00 0.00 0.00 40 1006.0
20260505235803 23 163 3.2 12.9 0.00 0.00 0.00 40 1006.0
20260505235305 23 217 4.8 19.3 0.00 0.00 0.00 39 1006.0
20260505234804 23 151 6.4 19.3 0.00 0.00 0.00 40 1006.0
20260505234303 23 182 3.2 19.3 0.00 0.00 0.00 39 1006.0
20260505233303 23 163 4.8 19.3 0.00 0.00 0.00 39 1006.0
20260505232804 23 143 6.4 12.9 0.00 0.00 0.00 39 1006.0
20260505232305 23 185 3.2 12.9 0.00 0.00 0.00 40 1006.0